Startseite
Über Mich
AHP4
Galerie
Sehschlangen
Tourenbuch
Bookmarks
Elektronik
Bewertung
Geschichten
[Tagesmessung] [Jahreswerte] [Information]

Messwerte vom 19.05.2022

Die letzten Messwerte von 23:58:48 Uhr:
KategorieMesswert
Temperatur [°C]16
Luftdruck [mBar]1003
Sonneneinstrahlung0
Wind [km/h]4 aus Nordwest
Niederschlag [l/m²]0
rel.Luftfeucht.96.6%
CO2 [ppm]823

Diagramme
Messwerte vom 19.05.2022
Tagesaggregation
KategorieMinimumMaximumSchnittSumme
Temperatur [°C]143522.2625
Luftdruck [mBar]99910061003.3125
Sonneneinstrahlung247129.1750
Wind [km/h]22
rF [%]25.696.666.98
Niederschlag [l/m²]1.8025
CO2 [ppm]457836648.7
Einordnung alsVegetationstag
Sommertag
Heißer Tag

Messungen an benachbarten Tagen: Zur Jahresaggregation 2022
Tabelle aller Messwerte
UhrzeitTemperatur [°C]Luftdruck [mBar]SonneWind [km/h]RichtungRegen [l/m²]rF [%]CO2 [ppm]
00:01:46 17 1006 0 0 S 0 78 711
00:04:48 17 1006 0 0 SO 0 77.9 714
00:07:46 17 1006 0 2 NO 0 78 712
00:10:50 17 1006 0 2 SO 0 78.5 709
00:13:46 17 1006 0 0 SW 0 78.3 708
00:16:47 17 1005 0 2 SO 0 78.5 702
00:19:45 17 1006 0 5 O 0 78.5 697
00:22:48 17 1005 0 1 O 0 78.7 697
00:25:48 17 1006 0 3 SO 0 78.9 697
00:28:49 17 1006 0 5 SW 0 78.7 694
00:31:47 17 1006 0 6 SO 0 78.7 688
00:34:46 17 1005 0 6 SO 0 79 688
00:37:47 17 1006 0 6 S 0 78.9 689
00:40:48 17 1006 0 8 O 0 78.9 685
00:43:47 17 1006 0 3 S 0 78.9 690
00:46:47 17 1005 0 2 S 0 79 692
00:49:48 17 1005 0 1 O 0 79.1 688
00:52:47 17 1005 0 5 SO 0 79 691
00:55:47 17 1005 0 3 S 0 79 685
00:58:48 17 1006 0 0 SO 0 79.2 682
01:01:49 17 1006 0 0 SO 0 79.2 682
01:04:47 17 1006 0 0 O 0 79.1 679
01:07:46 17 1006 0 1 S 0 79 676
01:10:46 17 1005 0 1 S 0 79.1 671
01:13:47 17 1006 0 1 O 0 78.9 663
01:16:47 17 1006 0 0 N 0 79.1 671
01:19:46 17 1006 0 1 S 0 79.2 679
01:22:47 17 1006 0 0 NW 0 79.1 673
01:25:46 17 1006 0 1 O 0 79.1 677
01:28:46 17 1006 0 0 O 0 79 674
01:31:46 17 1005 0 2 S 0 79 679
01:34:47 17 1005 0 1 NO 0 79.1 688
01:37:46 17 1006 0 0 SO 0 79.1 691
01:40:47 17 1005 0 0 NW 0 79.3 695
01:43:49 17 1005 0 0 O 0 79.3 687
01:46:49 17 1006 0 0 O 0 79.4 694
01:49:48 17 1005 0 0 NO 0 79.4 688
01:52:48 17 1005 0 0 NO 0 79.5 697
01:55:47 16 1005 0 1 N 0 79.7 697
01:58:46 16 1006 0 0 NO 0 80.4 702
02:01:50 16 1005 0 0 NO 0 81.1 703
02:04:47 16 1005 0 1 NO 0 81.7 700
02:07:48 16 1006 0 1 NO 0 81.9 700
02:10:48 16 1006 0 0 NO 0 82.2 700
02:13:48 16 1006 0 0 NO 0 82.4 702
02:16:46 16 1005 0 0 NO 0 82.4 703
02:19:50 16 1006 0 0 NO 0 83.2 703
02:22:49 16 1005 0 0 NO 0 83.7 702
02:25:47 16 1005 0 0 NO 0 84.1 700
02:28:49 16 1005 0 0 O 0 84.1 700
02:31:49 16 1005 0 0 NO 0 84 695
02:34:46 15 1005 0 0 NO 0 83.9 691
02:37:45 15 1005 0 0 O 0 84.1 691
02:40:49 15 1005 0 0 NO 0 84.6 694
02:43:47 15 1005 0 0 NO 0 84.9 696
02:46:50 15 1005 0 2 NO 0 85.4 695
02:49:47 15 1005 0 0 N 0 85.4 705
02:52:47 15 1005 0 0 NO 0 85.4 714
02:55:48 15 1006 0 0 NO 0 85.3 712
02:58:47 15 1005 0 0 NO 0 85.5 720
03:01:50 15 1005 0 0 NO 0 85.6 720
03:04:47 15 1005 0 0 NO 0 85.4 726
03:07:47 15 1005 0 0 NO 0 85.2 723
03:10:46 15 1005 0 0 NO 0 85.3 728
03:13:47 15 1005 0 0 NO 0 85.3 725
03:16:49 15 1005 0 0 NO 0 85.6 717
03:19:47 15 1005 0 0 NO 0 86.1 717
03:22:48 15 1005 0 0 NO 0 85.9 714
03:25:47 15 1005 0 0 NO 0 85.9 718
03:28:48 14 1005 0 0 NO 0 85.9 720
03:31:48 14 1005 0 0 NO 0 86.7 726
03:34:48 15 1004 0 0 NO 0 87.6 720
03:37:49 15 1005 0 0 NO 0 88 709
03:40:46 15 1005 0 0 NO 0 88.1 705
03:43:47 15 1004 0 0 S 0 87.4 717
03:46:45 15 1005 0 0 S 0 87.4 711
03:49:47 15 1005 0 0 S 0 87.5 711
03:52:47 15 1005 0 0 S 0 87.5 712
03:55:45 15 1004 0 0 S 0 87.4 708
03:58:49 15 1005 0 0 S 0 87.3 699
04:01:45 15 1005 0 0 S 0 87.4 700
04:04:46 15 1004 0 0 S 0 87.3 714
04:07:45 15 1005 0 0 S 0 87.6 715
04:10:47 15 1004 0 0 S 0 87.9 708
04:13:47 15 1005 0 0 S 0 87.8 708
04:16:46 14 1005 0 0 S 0 87.6 702
04:19:46 14 1005 0 0 S 0 87.6 708
04:22:48 14 1005 0 0 S 0 87.8 709
04:25:45 14 1005 0 0 S 0 87.9 717
04:28:46 14 1005 0 0 NO 0 87.9 715
04:31:46 14 1004 0 0 NO 0 88.1 711
04:34:49 14 1005 0 0 NO 0 88.3 705
04:37:46 14 1004 0 0 NO 0 88.3 711
04:40:48 14 1005 0 0 NO 0 88.2 712
04:43:47 14 1005 0 0 NO 0 88 717
04:46:46 14 1005 0 0 NO 0 88.5 719
04:49:47 14 1004 4 0 NO 0 88.4 720
04:52:46 14 1004 5 0 NO 0 88.4 715
04:55:49 14 1005 8 0 NO 0 88.6 722
04:58:47 14 1005 12 0 NO 0 88.8 720
05:01:48 14 1005 16 0 NO 0 88.9 726
05:04:49 14 1005 22 0 NO 0 89 730
05:07:48 14 1005 28 0 NO 0 89.2 729
05:10:49 14 1005 35 0 NO 0 89.5 729
05:13:48 14 1005 43 0 NO 0 89.3 729
05:16:47 14 1005 50 0 NO 0 89.5 728
05:19:49 14 1005 58 0 NO 0 89.7 729
05:22:49 14 1005 67 0 NO 0 89.7 729
05:25:48 14 1004 77 0 NO 0 90.2 729
05:28:49 14 1004 86 0 NW 0 90.4 726
05:31:49 14 1005 95 0 NW 0 90.5 723
05:34:49 14 1004 103 0 NW 0 90.5 729
05:37:48 14 1004 110 0 NW 0 90.5 727
05:40:48 14 1005 117 0 NW 0 90.6 720
05:43:51 14 1004 124 0 NW 0 90.6 726
05:46:51 14 1004 131 0 NW 0 90.6 736
05:49:49 14 1004 137 0 NW 0 90.6 729
05:52:47 14 1004 143 0 NW 0 90.7 727
05:55:48 14 1005 149 0 NO 0 90.9 714
05:58:48 14 1005 154 0 NO 0 91.1 721
06:01:48 14 1004 159 0 NO 0 91.3 725
06:04:47 14 1004 163 0 NO 0 91 720
06:07:49 14 1004 166 0 NO 0 90.8 721
06:10:48 14 1004 169 0 NO 0 90.6 714
06:13:46 14 1004 172 0 O 0 90.5 723
06:16:46 14 1004 173 0 O 0 90.2 711
06:19:46 15 1004 175 0 O 0 90.1 732
06:22:47 15 1004 177 0 O 0 89.8 737
06:25:49 15 1004 179 0 O 0 89.5 735
06:28:47 15 1005 180 0 O 0 89.3 733
06:31:47 15 1004 182 0 O 0 89 741
06:34:47 15 1004 184 0 O 0 88.7 747
06:37:48 16 1004 186 0 N 0 88.4 751
06:40:48 16 1005 188 0 N 0 88.3 757
06:43:48 16 1005 191 0 N 0 88 764
06:46:46 16 1004 193 0 N 0 87.7 778
06:49:49 16 1006 194 0 N 0 87.5 803
06:52:47 16 1005 194 0 N 0 87.1 823
06:55:49 16 1005 195 0 N 0 87.1 836
06:58:51 17 1005 195 0 O 0 86.2 832
07:01:46 17 1004 63 0 O 0 85.5 805
07:04:48 17 1005 157 0 NO 0 84.7 615
07:07:48 18 1005 197 0 NO 0 84 515
07:10:51 18 1005 198 0 SO 0 83.7 521
07:13:48 18 1004 199 0 SO 0 83.4 565
07:16:48 19 1004 199 0 SO 0 82.7 604
07:19:50 19 1005 200 0 SO 0 82.4 638
07:22:50 19 1005 200 0 SO 0 81 668
07:25:48 19 1004 200 0 O 0 80.6 680
07:28:50 20 1005 200 0 SO 0 78.8 689
07:31:49 20 1004 200 1 O 0 77.4 708
07:34:49 21 1005 200 3 O 0 77.1 723
07:37:50 21 1005 201 1 SW 0 76 730
07:40:49 22 1005 201 0 O 0 74.7 732
07:43:49 22 1006 202 0 NO 0 74 735
07:46:48 22 1004 202 0 S 0 72.6 731
07:49:51 22 1005 203 2 SO 0 72.1 733
07:52:47 22 1005 203 0 O 0 71.3 729
07:55:50 21 1005 204 5 SO 0 71.5 724
07:58:47 21 1005 205 1 S 0 72.3 723
08:01:48 21 1004 206 0 O 0 73 724
08:04:48 21 1005 207 2 SO 0 73.5 723
08:07:50 21 1005 208 1 SO 0 73.8 715
08:10:49 21 1005 208 1 SO 0 73.9 714
08:13:51 21 1005 209 0 SO 0 74.2 709
08:16:51 21 1006 210 2 SO 0 74.1 712
08:19:51 21 1005 210 1 O 0 73.5 706
08:22:50 21 1005 210 1 SO 0 73.4 706
08:25:49 21 1005 209 3 O 0 73.3 697
08:28:49 22 1005 209 1 O 0 73 695
08:31:50 22 1004 207 0 W 0 72.7 695
08:34:48 22 1005 206 0 N 0 71.9 700
08:37:49 22 1005 205 0 NW 0 71.7 697
08:40:49 22 1005 203 0 O 0 72.2 693
08:43:50 22 1006 202 3 SO 0 72.1 682
08:46:50 22 1005 200 3 S 0 71 685
08:49:52 22 1005 198 2 SW 0 69.4 686
08:52:47 22 1005 197 0 S 0 68.6 687
08:55:50 22 1005 197 0 S 0 68.1 690
08:58:50 22 1004 197 0 S 0 68.3 691
09:01:50 22 1004 198 1 SO 0 68.4 700
09:04:49 22 1005 200 0 S 0 68 697
09:07:47 22 1005 201 0 W 0 67.6 698
09:10:51 22 1005 202 3 S 0 64.9 696
09:13:49 22 1005 202 0 W 0 64.7 700
09:16:50 22 1005 203 0 SW 0 63.8 691
09:19:48 23 1005 204 1 W 0 63.5 688
09:22:49 23 1005 204 2 W 0 62.1 682
09:25:51 23 1005 206 0 SO 0 61.8 685
09:28:49 23 1005 207 1 SW 0 62.5 686
09:31:47 23 1004 208 3 S 0 62.2 691
09:34:47 23 1004 210 2 S 0 60.8 686
09:37:49 23 1005 211 1 NW 0 60.6 682
09:40:49 24 1004 213 1 S 0 59.3 682
09:43:49 24 1004 215 2 SO 0 57.9 683
09:46:49 24 1005 217 0 S 0 54.4 686
09:49:51 24 1005 219 4 SW 0 54.2 685
09:52:49 24 1005 220 8 W 0 54.2 683
09:55:48 25 1005 221 1 S 0 53.9 676
09:58:47 25 1004 222 4 S 0 53.7 671
10:01:50 25 1004 222 0 S 0 53.1 674
10:04:47 26 1004 222 2 S 0 53.5 674
10:07:48 26 1005 222 1 NW 0 51.3 674
10:10:49 26 1004 222 2 S 0 49.5 671
10:13:50 26 1004 222 0 SW 0 48.3 662
10:16:49 26 1004 222 2 S 0 47.8 656
10:19:49 26 1005 220 3 W 0 48.1 656
10:22:47 26 1005 219 1 SO 0 48.1 658
10:25:47 26 1004 219 0 SW 0 46.9 664
10:28:49 26 1004 219 1 SW 0 47.7 665
10:31:51 26 1005 220 0 SW 0 48.5 659
10:34:48 26 1004 221 1 S 0 48.8 661
10:37:51 26 1004 222 1 SW 0 49.2 656
10:40:47 26 1003 223 3 SW 0 49 657
10:43:47 26 1004 224 2 W 0 47.4 656
10:46:47 26 1004 225 2 S 0 46.3 653
10:49:49 27 1004 225 1 NW 0 47.9 647
10:52:47 27 1004 225 1 S 0 47.4 645
10:55:46 27 1004 225 3 S 0 45.7 641
10:58:49 27 1004 225 2 NW 0 46.2 638
11:01:46 27 1004 226 4 O 0 46.3 635
11:04:47 27 1004 226 1 N 0 46.6 641
11:07:46 27 1004 226 2 O 0 47.5 644
11:10:48 28 1004 226 8 NW 0 46.1 633
11:13:50 27 1003 225 2 SO 0 45.9 632
11:16:49 27 1004 226 2 SW 0 44.8 632
11:19:45 27 1004 226 1 S 0 43.6 633
11:22:52 28 1004 225 0 S 0 44.7 635
11:25:47 28 1004 225 2 S 0 44.8 623
11:28:48 28 1004 224 4 S 0 45.8 625
11:31:47 29 1005 224 8 S 0 45.3 620
11:34:48 29 1004 224 4 S 0 44.7 623
11:37:48 29 1004 224 4 SO 0 44.7 620
11:40:49 29 1004 224 10 S 0 44.5 620
11:43:49 29 1004 224 8 S 0 43.6 609
11:46:48 29 1004 224 13 SO 0 44.2 609
11:50:14 30 1004 225 9 S 0 40 603
11:52:47 29 1004 225 8 S 0 39.8 609
11:55:48 29 1003 226 9 SO 0 40.6 609
11:58:48 29 1004 225 6 SO 0 40.5 611
12:01:50 29 1003 225 9 SW 0 41.2 602
12:04:50 30 1003 225 7 S 0 41.6 596
12:07:48 30 1003 225 6 SO 0 41.6 603
12:10:49 30 1004 225 6 SO 0 41.2 606
12:13:51 30 1004 225 7 S 0 40 596
12:16:46 30 1003 226 2 O 0 40.3 592
12:19:49 30 1003 226 7 S 0 41.5 594
12:22:48 31 1003 227 5 SO 0 41.1 594
12:25:46 31 1003 226 7 S 0 41.8 594
12:28:48 31 1003 225 10 O 0 40.2 588
12:31:51 31 1003 224 9 S 0 40.2 586
12:34:47 31 1004 224 5 S 0 39.3 579
12:37:47 32 1003 224 7 S 0 37.8 579
12:40:48 32 1002 225 5 SO 0 36.7 585
12:43:50 33 1002 226 7 SO 0 35 579
12:46:48 33 1003 226 9 SO 0 34.5 577
12:49:46 33 1003 226 11 S 0 34.4 576
12:52:49 34 1002 226 4 SO 0 33.8 577
12:55:46 34 1002 224 8 S 0 32.5 573
12:58:49 33 1002 225 10 S 0 30.8 577
13:01:49 33 1002 225 18 SW 0 31.8 574
13:04:49 33 1002 226 14 S 0 30.9 565
13:07:48 32 1002 225 10 S 0 31.3 562
13:10:49 33 1002 225 11 SO 0 31.9 556
13:13:48 33 1002 224 9 SO 0 32 556
13:16:49 33 1002 224 12 S 0 31.3 556
13:19:49 33 1002 225 5 SW 0 31.5 550
13:22:51 34 1002 226 3 SW 0 31.2 550
13:25:48 35 1002 225 8 SO 0 31.9 550
13:28:47 34 1002 225 22 S 0 29.4 556
13:31:47 34 1002 225 15 O 0 29.3 553
13:34:47 34 1002 225 4 O 0 31.1 544
13:37:47 34 1002 226 7 S 0 31.7 536
13:40:49 34 1002 228 5 SO 0 31 533
13:43:49 34 1002 230 6 SO 0 30.9 530
13:46:49 34 1002 231 4 S 0 30.6 534
13:49:48 34 1002 229 15 SO 0 30.2 532
13:52:48 34 1002 231 6 S 0 28.6 528
13:55:47 34 1002 232 9 S 0 29.5 524
13:58:49 34 1002 232 6 SW 0 27.8 524
14:01:47 34 1002 232 7 S 0 26.6 519
14:04:48 34 1002 232 10 S 0 27.2 525
14:07:47 34 1002 235 4 S 0 27.1 518
14:10:48 34 1002 236 6 SO 0 28.3 515
14:13:47 35 1002 237 20 S 0 26.7 512
14:16:48 34 1002 239 6 S 0 25.6 514
14:19:49 34 1002 240 7 SO 0 26.2 513
14:22:47 34 1002 240 9 S 0 26.9 515
14:25:49 34 1002 239 14 SO 0 26.5 509
14:28:50 35 1002 233 4 SW 0 27.3 506
14:31:48 35 1002 238 7 O 0 27.3 507
14:34:50 35 1002 240 20 SO 0 27.2 500
14:37:48 34 1002 241 1 O 0 27.3 499
14:40:46 34 1002 241 7 SW 0 28.1 497
14:43:49 34 1001 241 10 S 0 26.8 495
14:46:49 34 1002 242 13 SO 0 27.9 504
14:49:47 34 1002 242 7 S 0 28.2 498
14:52:48 34 1002 241 9 S 0 27.8 501
14:55:49 34 1001 242 10 SO 0 27.2 497
14:58:49 34 1002 243 4 SW 0 26.7 500
15:01:49 34 1002 244 7 SO 0 28.2 498
15:04:48 34 1001 240 8 S 0 27.1 494
15:07:48 34 1002 239 6 SO 0 27.6 495
15:10:50 33 1002 238 4 SO 0 28.3 486
15:13:49 33 1001 241 8 SO 0 29.4 481
15:16:46 33 1001 242 9 S 0 29.2 492
15:19:51 33 1002 234 12 SO 0 28.4 489
15:22:47 33 1001 234 4 S 0 29.6 477
15:25:48 32 1002 237 9 SW 0 30.2 465
15:28:46 32 1002 236 9 O 0 30.4 471
15:31:49 32 1002 233 12 S 0 29.7 477
15:34:48 32 1001 235 9 SW 0 29.6 468
15:37:48 31 1001 234 6 S 0 28.8 471
15:40:47 31 1001 240 7 S 0 29.5 471
15:43:47 32 1001 243 5 SO 0 31.9 503
15:46:49 32 1001 243 1 SW 0 28.5 501
15:49:48 33 1001 245 2 S 0 28.1 503
15:52:46 33 1002 244 11 S 0 27.7 509
15:55:47 34 1001 243 4 S 0 28.1 517
15:58:46 34 1001 243 9 S 0 28 511
16:01:48 34 1002 242 10 S 0 27.9 504
16:04:49 34 1001 241 12 S 0 27.7 501
16:07:49 34 1001 242 8 SO 0 27.1 495
16:10:50 33 1001 242 7 SO 0 28.5 501
16:13:48 33 1001 235 2 S 0 28.4 494
16:16:47 32 1002 243 9 S 0 28.4 476
16:19:49 33 1001 245 4 SO 0 29.3 487
16:22:49 33 1002 242 2 S 0 29.1 492
16:25:49 33 1001 241 5 SW 0 28.5 496
16:28:48 33 1001 238 5 S 0 29 495
16:31:48 33 1001 244 5 S 0 29.1 489
16:34:47 33 1000 244 7 W 0 29.4 484
16:37:49 33 1001 241 8 SO 0 28 492
16:40:47 33 1001 238 9 S 0 28.6 492
16:43:50 32 1001 241 6 S 0 28.7 492
16:46:49 32 1001 236 7 SW 0 29.1 486
16:49:47 32 1000 232 8 S 0 29.7 485
16:52:50 31 1000 232 6 SW 0 29.9 480
16:55:46 31 1000 232 9 S 0 30.3 489
16:58:47 31 1000 232 6 S 0 30.7 486
17:01:48 31 1001 232 3 S 0 31.7 488
17:04:50 31 1001 231 2 SO 0 32.4 483
17:07:48 31 1000 232 1 SW 0 32.7 486
17:10:49 31 1000 236 5 SO 0 32.9 483
17:13:48 31 1000 234 6 S 0 32.8 478
17:16:47 31 1001 231 6 S 0 33.6 477
17:19:47 31 1000 240 4 O 0 33.5 477
17:22:49 31 1001 242 2 SW 0 33.7 480
17:25:48 31 1001 244 1 S 0 33 480
17:28:48 31 1001 245 3 SO 0 33.5 483
17:31:47 32 1000 239 6 S 0 32.7 474
17:34:48 32 1000 237 8 S 0 32.2 474
17:37:48 32 1000 238 3 S 0 31.1 477
17:40:47 32 1001 247 2 S 0 31.3 480
17:43:48 33 1000 247 8 SW 0 31.4 477
17:46:48 33 1000 246 9 SO 0 30.3 471
17:49:47 33 1001 245 6 S 0 30.2 469
17:52:47 34 1001 244 1 S 0 29.4 465
17:55:49 34 1000 241 10 S 0 29.5 462
17:58:49 33 1000 237 8 SO 0 29.7 468
18:01:46 32 1001 241 8 S 0 30.1 465
18:04:48 32 999 227 6 S 0 31.6 462
18:07:48 31 1001 218 7 SW 0 33 457
18:10:49 30 1000 206 5 SW 0 33.9 460
18:13:47 30 1001 203 9 S 0 34.7 463
18:16:49 29 1001 195 1 SO 0 36.3 469
18:19:49 29 1001 185 2 W 0 37.2 478
18:22:48 29 1001 171 0 NO 0 37.9 480
18:25:47 28 1001 155 1 S 0 38.8 477
18:28:49 28 1002 142 1 SO 0 39.7 483
18:31:47 28 1001 114 0 S 0 40.6 480
18:34:47 27 1002 99 2 S 0 43.6 478
18:37:48 26 1002 97 2 W 0 47.5 468
18:40:50 25 1002 127 18 SW 0 54 468
18:43:52 23 1002 166 15 NW 0 60.2 471
18:46:49 22 1003 157 6 SW 0 67.4 471
18:49:49 20 1002 132 5 W 0 74.5 471
18:52:49 20 1003 120 6 SW 0.2575 76.3 474
18:55:49 19 1003 120 4 SW 0 81 471
18:58:48 19 1002 125 5 S 0 81.2 474
19:01:50 19 1003 131 5 NW 0 82.1 474
19:04:52 19 1003 122 2 SW 0 82.7 489
19:07:51 19 1003 123 4 NW 0 82.3 498
19:10:48 19 1003 119 3 O 0 82.7 521
19:13:47 19 1003 111 1 SW 0 83.6 525
19:16:48 19 1003 105 4 SW 0 83.1 533
19:19:49 19 1004 118 0 SO 0 87.4 538
19:22:46 18 1004 118 0 S 0 87.7 542
19:25:48 18 1004 113 1 SW 0 87.6 545
19:28:49 18 1004 109 4 SW 0 87.9 559
19:31:48 18 1004 109 1 SO 0 89.1 571
19:34:49 18 1003 108 1 SW 0 88.5 577
19:37:50 18 1003 106 0 SW 0 88.4 582
19:40:48 18 1002 106 0 N 0.2575 88 583
19:43:48 18 1003 102 0 S 0 88.2 588
19:46:49 18 1002 96 0 NW 0.2575 89.7 568
19:49:47 17 1002 89 0 S 0 91.2 557
19:52:46 17 1002 84 0 SO 0.2575 91.7 564
19:55:47 17 1002 82 0 S 0.2575 93.4 589
19:58:48 17 1002 86 2 SO 0 93.3 600
20:01:48 17 1002 93 5 S 0.2575 94.9 621
20:04:50 17 1002 99 2 SO 0 95.3 638
20:07:49 17 1001 101 3 SO 0 95.3 659
20:10:48 17 1002 92 1 S 0.2575 95.2 650
20:13:51 17 1001 82 2 NW 0 94.9 656
20:16:48 17 1002 79 4 N 0 95 664
20:19:46 17 1002 76 3 O 0 95.7 688
20:22:47 17 1002 71 0 N 0 95.7 703
20:25:50 17 1002 68 2 NW 0 96.4 708
20:28:50 17 1002 71 6 NW 0 96.6 709
20:31:47 17 1002 77 7 SW 0 96.6 717
20:34:48 17 1002 79 1 NO 0 96.6 723
20:37:47 17 1002 80 5 W 0 96.6 725
20:40:49 17 1002 78 0 SO 0 96.6 726
20:43:50 17 1002 74 0 SO 0 96.6 723
20:46:51 17 1002 69 0 SO 0 96.6 726
20:49:48 17 1002 63 0 SO 0 96.6 733
20:52:49 17 1002 58 0 SO 0 96.6 737
20:55:46 17 1002 56 2 S 0 96.6 731
20:58:49 17 1002 57 0 SO 0 96.6 735
21:01:51 17 1002 60 0 SO 0 96.6 741
21:04:48 17 1001 63 0 SW 0 96.6 741
21:07:45 17 1002 69 3 S 0 96.6 744
21:10:46 17 1002 71 3 S 0 96.6 755
21:13:49 17 1002 66 0 S 0 96.6 761
21:16:48 17 1002 51 0 S 0 96.6 762
21:19:47 17 1002 37 1 N 0 96.6 770
21:22:49 17 1002 32 1 SO 0 96.6 776
21:25:51 17 1002 19 0 SO 0 96.6 782
21:28:48 17 1002 14 1 S 0 96.6 779
21:31:47 17 1002 9 1 S 0 96.6 782
21:34:47 17 1002 7 0 S 0 96.6 791
21:37:47 17 1002 6 0 S 0 96.6 799
21:40:48 17 1002 5 0 SO 0 96.6 805
21:43:45 17 1002 4 0 W 0 96.6 805
21:46:47 17 1002 3 2 S 0 96.6 815
21:49:48 17 1002 3 1 S 0 96.6 820
21:52:46 17 1002 0 2 S 0 96.6 819
21:55:48 17 1002 0 1 S 0 96.6 825
21:58:49 17 1002 0 0 NO 0 96.6 820
22:01:47 17 1002 0 1 S 0 96.6 810
22:04:47 17 1002 0 0 W 0 96.6 814
22:07:49 16 1002 0 1 SW 0 96.6 814
22:10:48 16 1002 0 1 W 0 96.6 824
22:13:48 16 1002 0 0 S 0 96.6 818
22:16:50 16 1002 0 0 SO 0 96.6 823
22:19:50 16 1002 0 2 SW 0 96.6 823
22:22:47 16 1002 0 3 W 0 96.6 824
22:25:49 17 1002 0 0 SW 0 96.6 826
22:28:48 17 1002 0 2 SO 0 96.6 826
22:31:49 16 1002 0 1 O 0 96.6 823
22:34:48 16 1002 0 2 SW 0 96.6 826
22:37:48 17 1002 0 2 S 0 96.6 826
22:40:49 17 1002 0 1 SW 0 96.6 822
22:43:48 17 1002 0 1 SW 0 96.6 823
22:46:47 17 1002 0 3 S 0 96.6 816
22:49:46 17 1002 0 1 0 96.6 810
22:52:50 17 1002 0 0 W 0 96.6 809
22:55:49 16 1002 0 3 NO 0 96.6 802
22:58:48 16 1002 0 0 S 0 96.6 806
23:01:48 16 1002 0 4 S 0 96.6 808
23:04:47 16 1002 0 0 S 0 96.6 811
23:07:46 16 1002 0 2 S 0 96.6 800
23:10:48 16 1002 0 2 W 0 96.6 805
23:13:48 16 1002 0 3 SW 0 96.6 808
23:16:45 16 1002 0 3 S 0 96.6 811
23:19:50 16 1002 0 11 W 0 96.6 816
23:22:44 16 1002 0 7 O 0 96.6 811
23:25:47 16 1002 0 3 W 0 96.6 810
23:28:48 16 1002 0 5 S 0 96.6 808
23:31:49 16 1002 0 2 SO 0 96.6 810
23:34:47 16 1002 0 2 SO 0 96.6 811
23:37:50 16 1003 0 2 W 0 96.6 805
23:40:49 16 1002 0 2 SW 0 96.6 802
23:43:48 16 1002 0 3 SO 0 96.6 810
23:46:47 16 1002 0 7 SW 0 96.6 809
23:49:48 16 1002 0 0 SW 0 96.6 818
23:52:46 16 1002 0 0 O 0 96.6 820
23:55:45 16 1002 0 1 S 0 96.6 825
23:58:48 16 1003 0 4 NW 0 96.6 823

Letzte Änderung : 04-Jan-2022
Copyright Jens Köhler, Wolfsburg, Obere Dorfstraße 10d